Showing default

COSMOS 2424 (GLONASS), 29672

Orbit data source: Space-Track

COSMOS 2424 (GLONASS), 29672 is a Commonwealth of Independent States-origin payload satellite in MEO that was launched on Mon, 25 Dec 2006 UTC via a PROTON-K/DM-2 launch vehicle from the Tyuratam Missile And Space Complex (TTMTR). Payload-class satellites include a variety of spacecraft equipped with specific instruments for various scientific and technological missions. These include communications satellites like Starlink; space stations such as the ISS; scientific satellites like the Hubble; Earth observation satellites from companies like Planet Labs, Umbra, and HawkEye 360; GPS; miniature CubeSats for education and research; and military/defense satellites.

Loading next visibility...
Identifier
29672, 2006-062C
Orbit
MEO
Country
Flag of CISCIS
Related business
Manufacturer
Resehetnev ISS
Mission
Non-operational Defense Navigation
Bus & Motor
URAGAN, Unknown motor
Mass
1,450 kg wet, ~1,200 kg dry
Launch date (UTC)
2006-12-25 (19 years ago)
Launch vehicle
PROTON-K/DM-2
Launch site
Tyuratam Missile And Space Complex (TTMTR)
Object type
Payload
Rocket body
Debris
Shape & HBR
Cyl + 1 Arm + 2 Pan, 3.9 m
Radar Cross Section
8.145 m², Large (>1 m²)

Expand to show TLE details & history
Last TLE update: 6 days ago

TLE from 6 days ago
0 COSMOS 2424 (GLONASS)
1 29672U 06062C   25304.38331938  .00000019  00000-0  00000-0 0  9992
2 29672  64.6933 201.9115 0019193 173.4084 186.6775  2.13122506146708
Epoch: 2025-10-31T09:11Z
TLE epoch observation values (Epoch: 2025-10-31T09:11:58.794Z)
Latitude
-0.00006°
Longitude
23.98533°
Altitude
19,177.445 km
Speed
3.946 km/s
True Right ascension
13h 27m 38s
True Declination
0° 00' 00"
Sunlit
Object was in daylight at epoch
Visualization orbit readout
Latitude
Unknown
Longitude
Unknown
Altitude
Unknown
Speed
Unknown
Apparent Right ascension
Unknown
Apparent Declination
Unknown
Sunlit
N/A
Visualization observer readout
Local Sidereal Time
20:40:12
Azimuth
Unknown
Elevation
Unknown
Doppler factor
Unknown
Orbital elements
Apogee altitude
19,176.83 km
Perigee altitude
19,078.923 km
Semi-major axis
25,506.014 km
Eccentricity
0.00192
Inclination
64.6933°
RAAN
201.9115°
Arg. of periapsis
173.4084°
True anomaly
186.65199°
Mean anomaly
186.6775°
Eccentric anomaly
186.66474°
Mean motion
0.53282 °/min
Orbital period
675.65 mins
BSTAR
0
Loading maneuver chart data...
Computing Atmospheric mass density...
Loading historical data...
Loading historical data...
Loading historical data...
Loading historical data...
Loading historical data...
Loading historical data...
Loading historical data...

Documentation

Showing up to 5 results
|